Terminal Aerodrome Forecast
Issued by NWS Topeka, KS

Home | Current Version | Previous Version | Graphics & Text | Print | Product List | Glossary On
Versions: 1 2 3 4 5 6 7 8 9 10 11 12 13 14 15 16 17 18
986
FTUS43 KTOP 091125
TAFTOP
TAF
KTOP 091125Z 0912/1012 32016G25KT P6SM SCT100
     FM100000 32005KT P6SM FEW040 BKN100=

USA.gov is the U.S. government's official web portal to all federal, state and local government web resources and services.